STARLINK-1504, 45746

Orbit data source: Space-Track

STARLINK-1504, 45746 is a payload satellite owned by SpaceX/Seattle (US) in LEO that was launched on Sat, 13 Jun 2020 UTC via an FALCON 9 launch vehicle from the Air Force Eastern Test Range (AFETR). Payload-class satellites include a variety of spacecraft equipped with specific instruments for various scientific and technological missions. These include communications satellites like Starlink; space stations such as the ISS; scientific satellites like the Hubble; Earth observation satellites from companies like Planet Labs, Umbra, and HawkEye 360; GPS; miniature CubeSats for education and research; and military/defense satellites.

Loading next visibility...
Identifier
45746, 2020-038S
Orbit
LEO
Country
Flag of USUS
Related business
Manufacturer
SpaceX/Seattle
Mission
Partially operational Commercial Communications
Bus & Motor
STARLINK, Unknown motor
Mass
260 kg wet, ~248 kg dry
Launch date (UTC)
2020-06-13 (5 years ago)
Launch vehicle
FALCON 9
Launch site
Air Force Eastern Test Range (AFETR)
Object type
Payload
Rocket body
Debris
Shape & HBR
Box + 1 Pan, 4.4 m
Radar Cross Section
13.562 m², Large (>1 m²)

Expand to show TLE details & history
Last TLE update: 1 day ago

TLE from 1 day ago
0 STARLINK-1504
1 45746U 20038S   25260.36077585  .00047288  00000-0  13833-2 0  9994
2 45746  53.0318 247.8245 0006303  28.2057 331.9284 15.34803625290723
Epoch: 2025-09-17T08:39Z
TLE epoch observation values (Epoch: 2025-09-17T08:39:31.033Z)
Latitude
-0.00005°
Longitude
121.40733°
Altitude
458.588 km
Speed
7.641 km/s
True Right ascension
16h 31m 17s
True Declination
0° 00' 00"
Sunlit
Object was in daylight at epoch
Visualization orbit readout
Latitude
Unknown
Longitude
Unknown
Altitude
Unknown
Speed
Unknown
Apparent Right ascension
Unknown
Apparent Declination
Unknown
Sunlit
N/A
Visualization observer readout
Local Sidereal Time
03:22:18
Azimuth
Unknown
Elevation
Unknown
Doppler factor
Unknown
Orbital elements
Apogee altitude
466.093 km
Perigee altitude
457.47 km
Semi-major axis
6,839.919 km
Eccentricity
0.00063
Inclination
53.0318°
RAAN
247.8245°
Arg. of periapsis
28.2057°
True anomaly
331.89439°
Mean anomaly
331.9284°
Eccentric anomaly
331.9114°
Mean motion
3.83678 °/min
Orbital period
93.83 mins
BSTAR
0.0013833
Loading maneuver chart data...
Computing Atmospheric mass density...

Documentation

Showing up to 5 results
|